TimeCDT,TemperatureF,Dew PointF,Humidity,Sea Level PressureIn,VisibilityMPH,Wind Direction,Wind SpeedMPH,Gust SpeedMPH,PrecipitationIn,Events,Conditions,WindDirDegrees,DateUTC
12:24 AM,57.2,55.4,94,30.06,1.8,SSE,9.2,-,0.15,Rain-Thunderstorm,Heavy Thunderstorms and Rain,150,2012-10-13 05:24:00
12:32 AM,57.2,55.4,94,30.04,1.0,SSE,10.4,-,0.29,Rain-Thunderstorm,Heavy Thunderstorms and Rain,150,2012-10-13 05:32:00
12:38 AM,57.2,57.2,100,30.04,2.0,SSE,11.5,-,0.30,Rain-Thunderstorm,Light Thunderstorms and Rain,160,2012-10-13 05:38:00
12:46 AM,57.2,57.2,100,30.03,4.0,SE,10.4,-,0.30,Rain-Thunderstorm,Light Thunderstorms and Rain,140,2012-10-13 05:46:00
12:53 AM,57.0,57.0,100,30.02,3.0,SSE,11.5,-,0.30,Rain-Thunderstorm,Light Rain,150,2012-10-13 05:53:00
1:04 AM,57.2,57.2,100,30.01,4.0,SSE,6.9,-,0.00,Rain-Thunderstorm,Light Rain,160,2012-10-13 06:04:00
1:44 AM,57.2,57.2,100,30.01,6.0,SE,5.8,-,0.00,,Overcast,140,2012-10-13 06:44:00
1:53 AM,57.9,57.9,100,30.00,6.0,SSE,8.1,-,0.00,,Overcast,150,2012-10-13 06:53:00
2:08 AM,57.2,57.2,100,30.00,5.0,SSE,10.4,-,N/A,,Overcast,150,2012-10-13 07:08:00
2:53 AM,59.0,59.0,100,30.00,6.0,SSE,11.5,-,N/A,,Overcast,160,2012-10-13 07:53:00
3:53 AM,61.0,60.1,97,29.95,5.0,South,15.0,-,N/A,,Overcast,170,2012-10-13 08:53:00
4:53 AM,62.1,61.0,96,29.95,4.0,South,9.2,-,0.01,,Overcast,190,2012-10-13 09:53:00
5:53 AM,63.0,61.0,93,29.95,5.0,South,10.4,-,N/A,,Overcast,180,2012-10-13 10:53:00
6:53 AM,63.0,62.1,97,29.94,5.0,South,12.7,-,N/A,,Overcast,180,2012-10-13 11:53:00
7:53 AM,63.0,62.1,97,29.93,4.0,South,12.7,-,N/A,,Overcast,180,2012-10-13 12:53:00
8:53 AM,64.0,62.1,93,29.91,4.0,South,12.7,-,N/A,,Overcast,170,2012-10-13 13:53:00
9:38 AM,64.4,62.6,94,29.93,5.0,South,12.7,-,0.00,Rain-Thunderstorm,Light Thunderstorms and Rain,190,2012-10-13 14:38:00
9:53 AM,64.9,62.1,90,29.93,5.0,SSW,12.7,-,0.00,Rain-Thunderstorm,Light Thunderstorms and Rain,200,2012-10-13 14:53:00
10:25 AM,64.4,62.6,94,29.95,2.5,SSW,12.7,-,0.01,Rain-Thunderstorm,Light Rain,200,2012-10-13 15:25:00
10:53 AM,64.0,63.0,96,29.92,1.8,South,8.1,-,0.11,Rain-Thunderstorm,Thunderstorms and Rain,180,2012-10-13 15:53:00
10:58 AM,64.4,62.6,94,29.93,2.0,South,8.1,-,0.02,Rain,Rain,190,2012-10-13 15:58:00
11:30 AM,64.4,62.6,94,29.90,2.5,South,10.4,-,0.04,Rain,Light Rain,170,2012-10-13 16:30:00
11:53 AM,64.9,64.0,97,29.86,2.5,SSE,12.7,-,0.04,,Overcast,160,2012-10-13 16:53:00
12:04 PM,64.4,64.4,100,29.86,3.0,SSE,17.3,23.0,N/A,,Overcast,160,2012-10-13 17:04:00
12:53 PM,66.9,64.9,93,29.83,5.0,South,12.7,24.2,0.01,,Overcast,180,2012-10-13 17:53:00
1:53 PM,66.0,64.0,93,29.81,7.0,South,12.7,20.7,0.00,,Overcast,180,2012-10-13 18:53:00
2:53 PM,66.0,64.0,93,29.76,7.0,SSE,17.3,21.9,0.03,Rain,Light Rain,160,2012-10-13 19:53:00
3:09 PM,66.2,64.4,94,29.78,7.0,South,15.0,-,0.00,Rain-Thunderstorm,Light Thunderstorms and Rain,170,2012-10-13 20:09:00
3:38 PM,66.2,64.4,94,29.79,1.8,South,11.5,-,0.06,Rain-Thunderstorm,Rain,180,2012-10-13 20:38:00
3:53 PM,66.0,64.9,96,29.76,2.0,SSE,13.8,-,0.11,Rain-Thunderstorm,Rain,160,2012-10-13 20:53:00
4:06 PM,66.2,64.4,94,29.76,4.0,SSE,11.5,-,0.00,Rain-Thunderstorm,Light Rain,160,2012-10-13 21:06:00
4:17 PM,66.2,64.4,94,29.75,6.0,South,15.0,-,0.00,,Overcast,170,2012-10-13 21:17:00
4:29 PM,66.2,64.4,94,29.76,7.0,South,15.0,-,0.00,Rain-Thunderstorm,Light Rain,170,2012-10-13 21:29:00
4:53 PM,66.0,64.9,96,29.73,1.0,South,17.3,23.0,0.26,Rain-Thunderstorm,Heavy Thunderstorms and Rain,170,2012-10-13 21:53:00
5:00 PM,66.2,64.4,94,29.75,2.0,SSE,15.0,-,0.01,Rain-Thunderstorm,Light Thunderstorms and Rain,160,2012-10-13 22:00:00
5:16 PM,66.2,64.4,94,29.74,6.0,South,12.7,-,0.01,Thunderstorm,Overcast,170,2012-10-13 22:16:00
5:19 PM,66.2,64.4,94,29.74,5.0,SSE,13.8,-,0.01,,Overcast,160,2012-10-13 22:19:00
5:46 PM,66.2,64.4,94,29.74,5.0,South,15.0,-,0.01,,Overcast,170,2012-10-13 22:46:00
5:53 PM,66.9,64.9,93,29.72,5.0,SSE,16.1,-,0.01,,Overcast,160,2012-10-13 22:53:00
6:15 PM,66.2,64.4,94,29.73,5.0,SSE,12.7,-,N/A,,Overcast,160,2012-10-13 23:15:00
6:33 PM,66.2,64.4,94,29.74,5.0,South,16.1,-,N/A,,Overcast,170,2012-10-13 23:33:00
6:40 PM,66.2,64.4,94,29.73,5.0,SSE,15.0,-,N/A,,Overcast,160,2012-10-13 23:40:00
6:48 PM,66.2,64.4,94,29.72,6.0,SSE,13.8,21.9,N/A,,Overcast,160,2012-10-13 23:48:00
7:53 PM,66.9,64.9,93,29.63,7.0,SE,17.3,26.5,0.01,,Mostly Cloudy,140,2012-10-14 00:53:00
9:00 PM,68.0,64.4,88,29.61,8.0,SE,21.9,29.9,0.01,Rain,Light Rain,140,2012-10-14 02:00:00
9:23 PM,69.8,60.8,73,29.67,10.0,SSW,17.3,34.5,0.01,,Partly Cloudy,200,2012-10-14 02:23:00
9:53 PM,66.0,61.0,84,29.65,10.0,SSW,9.2,-,0.01,,Mostly Cloudy,210,2012-10-14 02:53:00
10:53 PM,66.0,60.1,81,29.66,10.0,SW,6.9,-,N/A,,Overcast,230,2012-10-14 03:53:00
11:38 PM,64.4,60.8,88,29.67,10.0,South,8.1,-,N/A,,Overcast,190,2012-10-14 04:38:00